Overview Statistics Trail Chart Weather Telemetry Raw packets
 

This is the latest recevied weather packets stored in our database for station/object 9W2XPF-13. If no packets are shown the sender has not sent any weather packets the latest 10 day(s).

<< 149 150 151 152 153 154 155 >>
Time Temp. Humidity Pressure Rain* Wind** Luminosity Snow
1777091402 33.33° C 70% 1009 hPa 0 mm - - -
1777091282 33.33° C 67% 1008.8 hPa 0 mm - - -
1777091162 33.33° C 67% 1009.1 hPa 0 mm - - -
1777091042 33.33° C 67% 1009 hPa 0 mm - - -
1777090922 33.33° C 68% 1009 hPa 0 mm - - -
1777090802 33.33° C 67% 1009.2 hPa 0 mm - - -
1777090682 33.33° C 68% 1009.1 hPa 0 mm - - -
1777090562 33.33° C 68% 1009 hPa 0 mm - - -
1777090442 33.33° C 67% 1009.3 hPa 0 mm - - -
1777090322 33.33° C 67% 1009.1 hPa 0 mm - - -
1777090202 32.78° C 69% 1009.2 hPa 0 mm - - -
1777090082 32.78° C 69% 1009.2 hPa 0 mm - - -
1777089962 32.78° C 72% 1009.3 hPa 0 mm - - -
1777089842 32.78° C 72% 1009.3 hPa 0 mm - - -
1777089722 32.78° C 71% 1009.3 hPa 0 mm - - -
1777089602 33.33° C 71% 1009.2 hPa 0 mm - - -
1777089482 33.33° C 67% 1009.4 hPa 0 mm - - -
1777089362 33.33° C 68% 1009.2 hPa 0 mm - - -
1777089242 33.33° C 69% 1009.4 hPa 0 mm - - -
1777089122 33.33° C 68% 1009.2 hPa 0 mm - - -
1777089002 33.89° C 67% 1009.2 hPa 0 mm - - -
1777088882 33.89° C 68% 1009.4 hPa 0 mm - - -
1777088762 33.33° C 69% 1009.4 hPa 0 mm - - -
1777088642 33.33° C 69% 1009.5 hPa 0 mm - - -
1777088522 32.78° C 72% 1009.4 hPa 0 mm - - -

* Rain latest hour (hover to see other rain measurements)
** Current wind speed in m/s (hover to see current wind gust speed)